Torna al catalogo

OPS 4682 DEB

AttivoPO
NORAD 11631·DEBRIS·🇺🇸 United States

Lanciato Apr 3, 1965 da Vandenberg Space Force Base

Loading…

Prossimi Passaggi (prossime 24 ore)

TLE

AggiornatoSource: Space-Track

Epoca: Sep 14, 2026, 13:29 UTC

1 11631U 65027F   26257.56192162 -.00000140  00000-0 -51127-3 0  9992
2 11631  90.2421   7.9499 0041842 197.4237 175.6940 12.96784997137366

Traccia OPS 4682 DEB in tempo reale con AllMySat

Download on the App Store